Wetbulb
72.38 71.05 70.26 67.54 60.33 60.49 58.36 59.01 62.66 61.19 62.47 65.94 65.24 62.21 61.23 63.70 62.05 61.79 73.33 72.41 72.64 73.97 75.53 74.72 75.58 75.22 75.18 75.87 76.33 76.38 76.33 76.28 76.28 76.66 76.93 76.91 76.48 76.09 75.96 76.40 76.47 76.15 75.83 76.00 75.87 75.75 75.82 75.08 74.47
69.28 68.23 67.43 63.66 56.02 54.04 56.58 60.76 59.26 62.30 65.61 66.90 65.57 64.62 62.82 62.04 68.18 69.86 71.29 71.59 73.56 74.50 75.20 74.91 75.90 75.74 75.43 75.54 76.03 76.38 76.58 76.76 76.79 76.84 76.45 76.05 76.12 76.02 75.65 75.96 76.02 75.23 74.92 74.92 74.97 75.16 75.28 75.16 75.23
67.51 67.69 61.69 58.56 56.13 53.45 55.80 58.65 60.42 63.56 66.70 66.08 64.91 67.18 65.51 64.75 69.11 70.91 73.69 71.96 73.42 74.44 74.69 75.35 76.08 75.85 75.90 75.77 76.16 76.41 76.53 76.53 76.33 76.15 75.97 75.58 75.63 75.72 76.02 75.83 75.71 74.60 74.29 73.96 73.79 73.76 73.84 74.19 74.70
63.99 61.69 60.79 55.15 53.88 56.27 57.25 60.02 60.71 62.87 65.22 67.17 67.24 64.49 68.20 71.32 70.86 72.83 73.84 72.40 73.19 73.60 74.01 75.19 75.92 75.58 76.10 76.10 75.88 76.28 76.13 76.16 76.18 75.81 75.35 75.15 75.07 75.24 75.82 75.63 75.46 74.19 73.50 73.31 73.11 73.10 72.83 72.65 72.59
63.18 60.09 54.69 53.93 54.19 56.91 58.99 60.24 61.11 61.02 63.16 64.84 66.89 64.37 66.72 70.92 73.06 74.01 73.05 72.87 72.19 72.97 73.88 74.87 76.05 75.95 75.98 75.99 75.92 76.08 75.98 75.98 76.03 75.69 75.38 75.15 74.78 74.76 74.88 74.37 73.85 73.66 73.65 73.46 73.08 73.07 73.17 73.20 73.21
56.50 58.01 51.85 50.86 53.57 56.68 58.82 60.28 61.11 61.88 63.67 64.53 64.79 65.20 67.23 72.93 72.65 73.46 73.37 72.99 72.63 72.67 73.64 74.46 75.64 76.03 75.83 75.98 75.93 76.06 75.91 75.93 75.98 75.80 75.70 74.81 74.35 74.01 73.86 73.41 73.18 73.30 73.54 73.60 73.76 73.66 73.64 73.88 73.96
54.68 53.80 50.77 51.64 52.41 54.72 57.65 61.61 61.11 61.33 62.42 64.50 66.94 63.19 68.47 70.80 73.59 73.77 73.80 73.47 72.25 72.83 73.24 74.42 74.62 75.85 75.75 76.01 75.91 76.08 76.03 75.98 75.98 75.78 75.50 74.64 73.86 73.47 72.97 73.06 72.87 73.34 73.37 73.37 73.62 73.81 74.15 74.01 73.93
55.94 54.32 50.87 51.46 51.11 52.07 57.22 60.24 62.16 61.70 61.33 68.79 68.16 62.92 64.14 70.94 73.87 74.25 74.23 73.28 71.82 72.25 72.53 73.19 73.61 74.36 74.32 75.45 76.01 76.03 76.03 76.06 75.83 75.25 74.57 74.29 73.34 72.84 72.43 73.30 73.52 73.51 73.20 73.23 73.22 72.96 72.96 73.33 73.58
55.82 50.40 48.55 50.21 50.72 52.11 55.79 57.95 61.82 65.38 63.70 65.99 67.46 67.54 70.14 72.09 73.39 72.72 72.71 72.23 71.27 71.03 72.00 72.52 72.55 73.09 73.54 73.21 75.26 75.82 75.25 75.17 75.03 74.71 74.37 73.78 72.50 71.95 72.75 73.67 73.75 73.84 73.31 73.07 72.94 73.19 73.49 72.45 73.13
52.51 49.76 50.08 52.39 53.16 52.24 53.99 56.94 58.98 61.43 60.06 61.55 64.10 67.94 69.21 71.67 71.83 69.97 70.61 70.52 70.13 69.74 70.97 71.72 71.59 72.23 72.83 72.59 74.19 74.63 74.58 74.47 74.18 74.16 74.32 73.36 73.22 72.79 73.91 74.57 73.49 74.09 73.53 72.97 72.99 73.35 72.44 72.93 75.31
52.02 49.54 52.06 52.00 52.93 53.28 52.75 53.15 58.04 58.62 57.50 59.84 60.33 62.31 68.67 70.62 71.00 69.28 69.27 70.89 70.12 70.08 70.81 70.91 71.55 72.46 72.36 72.46 72.99 73.30 73.57 73.97 74.01 74.65 74.81 74.04 72.70 72.53 73.34 74.00 73.94 74.56 73.41 74.24 74.40 73.27 74.07 73.72 75.56
48.04 50.80 51.40 51.54 51.75 51.41 50.79 52.93 52.54 54.77 56.52 59.00 59.09 63.05 67.63 68.78 69.63 69.31 69.59 70.37 70.42 69.80 70.44 70.68 71.64 72.84 73.27 72.89 72.75 72.56 72.61 73.42 73.52 74.46 75.19 73.90 71.84 72.21 72.72 72.87 73.42 74.46 73.64 74.42 74.39 74.34 75.02 74.95 75.74
48.54 49.75 50.70 51.75 51.83 51.70 52.78 51.66 51.97 52.96 57.60 62.43 60.93 63.46 64.99 67.86 69.54 70.77 71.46 71.69 70.48 69.37 70.02 70.67 71.67 72.92 73.44 73.33 72.93 73.03 72.96 73.13 73.85 73.99 74.63 73.60 71.71 72.13 73.27 73.24 73.67 74.06 74.21 74.09 73.72 73.48 73.66 73.95 74.52
51.17 51.07 50.97 51.73 51.89 52.22 50.59 51.53 51.74 56.72 63.06 61.91 61.00 61.86 64.38 66.51 69.56 70.40 70.18 69.76 68.79 70.04 70.12 71.02 71.02 73.22 73.49 73.40 73.32 72.80 73.27 73.64 73.64 73.60 73.74 73.95 72.33 73.07 73.22 73.76 73.48 73.94 74.09 74.00 73.27 72.97 72.59 72.93 73.68
51.20 48.67 50.70 51.15 51.42 51.01 51.67 49.84 55.08 62.03 63.23 62.64 64.72 65.90 66.01 68.35 69.79 70.09 69.64 70.26 69.33 70.13 71.07 70.78 71.33 72.49 73.31 73.71 73.66 72.94 73.28 73.23 73.09 73.41 74.09 74.05 73.69 74.24 75.02 73.90 73.57 73.84 74.01 73.79 73.52 72.64 72.18 72.21 73.64
48.79 48.86 46.93 50.25 50.28 53.23 53.13 49.86 58.06 63.45 63.24 62.83 64.43 65.51 65.96 66.96 67.20 68.95 69.10 70.82 71.74 70.73 70.48 71.06 70.82 71.25 72.70 73.02 73.42 73.14 73.13 73.20 73.17 73.42 73.54 74.00 73.38 74.40 75.22 73.83 73.64 73.93 73.79 73.42 72.63 71.79 70.98 70.83 72.22
48.85 46.74 46.70 48.04 52.38 53.02 53.54 50.71 58.17 62.41 62.42 62.15 63.63 64.57 65.45 67.12 67.92 68.87 69.97 71.15 71.55 71.62 70.79 70.36 70.88 70.22 71.59 72.54 72.91 73.37 73.82 73.19 73.02 73.24 72.98 73.56 72.87 73.43 74.60 73.64 73.57 73.56 72.64 72.64 72.36 71.69 71.47 70.12 70.95
47.72 47.77 49.01 48.87 53.49 54.14 51.04 53.93 57.07 59.84 60.42 60.30 61.69 62.65 63.52 64.34 65.13 67.63 69.55 70.26 71.64 72.25 72.03 71.17 70.56 71.32 71.66 71.79 72.07 72.08 72.51 72.82 73.07 72.65 72.61 73.14 72.61 72.79 74.04 73.51 73.53 72.75 71.88 71.94 72.02 72.03 71.04 70.29 70.28
50.63 49.77 49.01 51.49 54.10 54.30 53.83 53.86 55.51 57.59 58.16 57.93 58.64 60.00 61.13 60.11 61.62 63.20 65.20 68.99 70.15 71.94 72.24 71.90 71.02 72.03 71.20 70.24 69.31 69.51 69.49 70.91 71.53 72.12 72.95 72.75 72.39 72.25 73.62 72.86 72.53 72.13 71.44 71.90 72.00 71.20 69.19 68.25 70.33
50.18 49.03 49.08 51.46 53.43 54.39 54.24 53.36 55.29 56.14 56.39 57.23 57.62 58.50 58.78 59.29 60.29 61.31 62.47 64.69 66.96 70.73 72.08 72.35 72.09 72.28 71.90 70.80 71.02 70.21 69.97 70.30 70.82 71.45 72.11 72.04 71.90 72.07 72.44 73.16 71.36 71.14 70.54 71.09 70.72 70.26 67.94 68.72 69.24
48.36 47.37 47.59 46.76 51.51 53.76 53.92 52.34 54.07 55.32 56.30 56.43 56.75 57.98 58.24 57.94 58.24 59.77 62.02 62.10 64.26 67.62 71.13 72.03 72.56 72.71 72.52 72.77 71.44 70.49 70.49 69.74 68.94 68.97 68.81 70.11 71.12 71.76 71.71 71.85 70.95 70.37 71.10 69.33 69.48 68.45 68.74 66.82 67.37
44.66 48.24 45.99 45.29 46.21 44.65 53.19 44.96 52.49 53.44 53.07 54.09 54.83 55.95 56.12 56.83 57.61 58.61 61.01 59.36 60.96 67.23 68.76 71.05 72.21 71.68 71.53 71.65 70.74 70.21 68.55 66.92 66.61 67.10 67.65 67.98 68.83 69.28 69.40 70.18 70.29 69.76 69.47 70.84 68.82 68.14 67.95 68.54 65.65
44.05 46.95 45.53 45.42 44.69 45.08 47.92 45.61 50.74 52.75 50.70 51.97 54.23 54.91 55.83 56.54 56.81 57.13 59.54 61.23 58.40 63.95 67.14 67.90 69.25 69.97 69.50 70.34 70.35 66.85 65.80 65.83 67.44 67.36 68.63 68.26 68.85 68.35 68.42 68.76 68.88 68.27 68.91 69.60 69.18 67.88 66.80 66.24 66.98
47.41 46.31 46.45 47.56 45.27 40.88 45.15 45.40 47.52 51.00 50.43 51.93 53.57 54.65 54.82 55.99 56.83 56.95 58.80 60.69 57.59 57.17 58.31 59.88 59.76 59.24 62.46 67.57 67.81 67.40 63.85 64.30 65.66 66.28 65.44 65.54 66.72 65.56 66.21 65.87 66.06 67.13 66.56 66.57 67.03 66.19 66.45 66.12 65.73
46.93 45.31 40.69 40.52 40.26 41.89 47.20 44.26 48.34 50.96 51.57 51.86 52.04 53.50 54.86 55.83 56.69 56.44 55.81 56.26 55.32 54.70 55.41 55.77 55.59 55.55 57.21 57.93 58.13 58.31 59.94 61.74 63.02 60.88 62.69 60.81 60.68 59.36 59.03 60.11 59.96 60.97 62.24 64.19 65.45 65.12 64.84 64.30 62.57
44.66 44.80 40.24 34.32 37.14 40.82 45.42 40.57 47.27 52.41 52.72 52.85 53.36 53.91 54.65 55.16 56.04 56.56 54.34 54.98 55.80 55.94 55.48 55.81 55.32 54.76 55.06 55.63 55.73 57.34 57.30 57.09 54.26 54.90 52.73 51.74 50.25 50.18 50.31 49.80 50.35 51.86 53.59 55.37 58.88 61.21 61.07 61.86 60.68
45.27 44.20 46.89 42.46 42.59 39.65 42.18 46.18 49.76 51.66 51.40 52.04 52.01 53.03 53.25 54.01 54.87 55.88 53.71 54.28 54.95 55.00 55.49 56.24 55.91 54.88 54.62 54.26 53.88 54.14 53.96 53.46 52.82 52.97 52.09 50.11 49.35 49.71 49.20 48.75 48.51 48.91 48.36 49.32 51.36 54.71 56.59 57.54 57.57
46.73 47.92 42.00 43.20 35.41 34.89 40.04 41.25 44.37 47.96 50.03 51.60 50.82 51.27 52.16 53.65 54.64 55.58 53.92 52.69 53.12 53.57 53.96 54.47 54.60 54.28 54.24 54.23 53.99 53.67 52.83 53.03 53.05 52.03 51.53 51.89 50.19 50.42 49.23 48.46 48.35 48.11 47.59 48.13 48.73 49.54 51.83 52.66 52.75
45.18 43.77 43.53 43.85 41.95 37.27 35.87 40.66 49.72 48.88 50.82 50.03 50.49 50.75 51.21 52.70 53.97 54.56 53.91 54.09 52.39 53.02 55.18 53.47 53.03 53.86 54.31 53.59 53.45 53.43 52.86 53.42 53.54 51.62 52.06 52.32 50.30 50.02 49.78 49.06 48.13 47.39 46.94 47.30 47.97 48.36 49.13 49.39 49.93
46.64 44.43 44.56 39.96 39.46 40.71 40.40 39.91 50.19 49.35 49.78 49.96 49.70 51.06 51.69 52.37 53.42 54.70 54.98 54.29 54.95 53.40 51.49 51.41 51.21 51.25 51.26 51.20 51.23 51.34 52.26 52.21 52.05 51.33 51.25 50.64 49.85 50.61 49.27 48.58 47.89 47.62 47.43 47.48 47.21 46.96 47.89 46.99 47.28
MSLP
1011.78 1011.19 1010.14 1009.31 1007.69 1005.42 1004.60 1004.82 1005.13 1004.78 1004.99 1005.71 1005.83 1005.85 1005.73 1006.07 1006.36 1007.67 1009.54 1010.16 1010.45 1011.40 1012.95 1014.19 1014.89 1015.45 1015.83 1016.14 1016.43 1016.66 1016.97 1017.35 1017.57 1017.83 1017.99 1018.13 1018.34 1018.51 1018.69 1018.85 1018.89 1018.91 1018.99 1019.12 1019.30 1019.49 1019.67 1019.83 1019.98
1010.32 1010.26 1009.40 1007.52 1006.12 1004.11 1004.12 1004.94 1004.84 1005.03 1005.73 1006.22 1006.34 1006.41 1006.34 1006.11 1007.50 1008.72 1009.54 1010.35 1010.54 1011.40 1012.66 1013.58 1014.75 1015.32 1015.84 1016.29 1016.67 1016.82 1016.99 1017.42 1017.71 1017.91 1018.06 1018.26 1018.46 1018.68 1018.96 1019.14 1019.17 1019.17 1019.22 1019.35 1019.47 1019.64 1019.90 1020.02 1020.19
1010.11 1009.68 1007.90 1006.26 1004.85 1003.69 1003.75 1004.81 1005.20 1005.47 1005.99 1006.32 1006.26 1006.54 1006.44 1006.61 1008.10 1008.63 1009.09 1010.28 1010.64 1011.40 1012.46 1013.41 1014.67 1015.28 1015.78 1016.24 1016.58 1017.09 1017.30 1017.47 1017.90 1018.16 1018.32 1018.46 1018.65 1018.87 1019.11 1019.30 1019.40 1019.41 1019.42 1019.55 1019.65 1019.79 1020.04 1020.17 1020.29
1009.62 1009.01 1007.89 1006.19 1004.03 1004.01 1004.17 1004.69 1005.13 1005.29 1005.87 1006.34 1006.45 1006.06 1006.95 1007.49 1007.90 1008.49 1009.67 1010.34 1010.78 1011.27 1012.19 1013.94 1014.72 1015.38 1015.95 1016.26 1016.64 1017.15 1017.55 1017.78 1018.01 1018.32 1018.53 1018.70 1018.86 1019.04 1019.22 1019.41 1019.47 1019.59 1019.63 1019.69 1019.82 1019.92 1020.11 1020.25 1020.39
1009.12 1007.30 1005.95 1005.00 1003.89 1003.49 1004.25 1004.66 1005.12 1004.91 1005.42 1005.93 1006.42 1005.74 1006.63 1008.15 1008.57 1009.17 1009.92 1010.23 1010.71 1011.11 1011.99 1013.87 1014.75 1015.27 1015.92 1016.33 1016.64 1017.09 1017.53 1018.05 1018.23 1018.43 1018.65 1018.80 1018.99 1019.16 1019.39 1019.54 1019.65 1019.76 1019.79 1019.80 1019.92 1020.00 1020.15 1020.27 1020.41
1007.92 1006.72 1005.03 1003.83 1003.35 1003.36 1004.08 1004.30 1004.73 1005.16 1005.45 1005.92 1006.42 1006.11 1006.37 1008.22 1008.96 1009.69 1010.41 1010.90 1011.00 1011.27 1012.02 1013.64 1014.90 1015.30 1015.93 1016.36 1016.82 1017.13 1017.51 1017.79 1018.31 1018.50 1018.77 1018.93 1019.16 1019.32 1019.52 1019.65 1019.76 1019.90 1019.95 1019.96 1020.05 1020.12 1020.21 1020.33 1020.43
1007.07 1006.06 1004.48 1003.54 1002.78 1002.91 1003.73 1004.19 1004.48 1004.64 1005.00 1005.60 1006.03 1005.88 1006.73 1008.24 1009.12 1009.92 1010.50 1010.95 1011.28 1011.73 1012.23 1013.49 1014.58 1015.35 1016.00 1016.55 1017.02 1017.31 1017.70 1018.03 1018.28 1018.74 1018.89 1019.13 1019.32 1019.44 1019.61 1019.76 1019.81 1019.91 1019.96 1020.05 1020.14 1020.22 1020.27 1020.37 1020.49
1007.13 1005.90 1004.39 1003.58 1003.22 1003.04 1003.33 1004.37 1004.62 1004.65 1004.59 1005.90 1006.57 1005.77 1006.20 1007.85 1009.50 1010.16 1010.58 1011.02 1011.43 1011.76 1012.25 1013.03 1013.91 1014.77 1015.52 1016.16 1017.07 1017.47 1017.85 1018.19 1018.42 1018.86 1019.05 1019.19 1019.41 1019.51 1019.63 1019.76 1019.78 1019.90 1019.98 1020.04 1020.14 1020.26 1020.30 1020.27 1020.37
1007.61 1006.09 1004.08 1003.51 1003.51 1003.23 1003.45 1004.16 1004.17 1005.08 1005.13 1006.06 1006.37 1006.50 1007.63 1008.16 1009.55 1010.14 1010.31 1010.71 1011.24 1011.71 1012.12 1012.79 1013.53 1014.21 1014.73 1015.27 1016.52 1017.44 1017.75 1018.25 1018.58 1018.82 1019.11 1019.17 1018.41 1018.92 1019.18 1019.57 1019.76 1019.95 1020.01 1020.07 1020.10 1020.05 1020.10 1020.07 1020.03
1006.89 1005.41 1004.12 1003.97 1004.00 1003.89 1003.65 1004.11 1003.98 1005.49 1005.05 1005.50 1005.99 1006.80 1008.42 1008.52 1009.26 1010.14 1009.92 1010.14 1010.74 1011.31 1011.91 1012.52 1013.17 1013.68 1014.12 1014.76 1015.90 1016.58 1017.05 1017.56 1017.84 1018.03 1018.59 1018.14 1017.84 1018.17 1018.13 1019.20 1019.78 1019.91 1019.94 1019.91 1019.98 1019.93 1019.84 1019.66 1018.63
1006.28 1005.10 1004.38 1004.82 1004.84 1004.71 1004.33 1004.22 1004.74 1005.13 1005.02 1005.32 1005.41 1005.61 1007.71 1008.58 1008.98 1010.10 1010.42 1010.10 1010.51 1010.96 1011.64 1012.23 1013.00 1013.65 1013.84 1014.37 1015.32 1015.97 1016.20 1016.76 1017.22 1017.60 1017.93 1017.69 1018.03 1018.53 1018.41 1018.50 1019.00 1019.12 1019.70 1018.93 1019.49 1019.59 1018.71 1018.10 1018.08
1006.10 1005.51 1005.09 1004.84 1004.75 1004.97 1004.86 1004.62 1004.30 1004.79 1004.94 1005.04 1005.15 1005.85 1006.82 1008.35 1008.88 1010.15 1010.62 1010.66 1010.83 1011.37 1011.98 1012.68 1013.08 1013.95 1013.97 1014.36 1015.14 1015.35 1015.60 1016.08 1016.56 1017.20 1017.88 1017.79 1017.92 1018.06 1017.70 1017.68 1017.74 1018.14 1018.24 1018.29 1018.51 1018.32 1018.78 1018.94 1018.80
1005.90 1005.00 1004.92 1004.80 1004.82 1004.85 1004.87 1004.67 1004.45 1004.57 1004.91 1005.46 1005.26 1006.08 1006.73 1007.70 1008.53 1009.34 1010.00 1010.45 1010.77 1011.35 1012.12 1012.76 1013.27 1014.11 1014.20 1014.52 1014.72 1014.81 1015.51 1015.76 1016.16 1016.84 1017.47 1017.43 1017.67 1017.74 1017.88 1017.75 1017.76 1017.71 1017.95 1018.20 1018.33 1018.56 1018.85 1018.99 1018.97
1005.24 1004.94 1004.67 1004.53 1004.51 1004.66 1004.87 1004.55 1005.22 1005.09 1006.28 1005.87 1005.49 1005.82 1006.38 1006.98 1008.08 1009.15 1009.93 1010.38 1010.99 1011.25 1011.64 1012.53 1013.28 1014.19 1014.42 1014.58 1014.48 1014.67 1015.11 1015.48 1016.03 1016.49 1016.83 1017.52 1017.56 1017.78 1017.65 1017.86 1017.74 1017.83 1017.98 1017.93 1018.21 1018.73 1018.96 1018.77 1018.72
1005.41 1005.10 1004.36 1004.17 1004.29 1004.53 1005.05 1004.86 1005.67 1006.62 1006.15 1006.08 1006.29 1006.46 1007.08 1007.52 1008.08 1009.03 1010.24 1010.47 1011.13 1011.38 1011.73 1012.43 1013.09 1013.91 1014.47 1014.87 1015.08 1014.78 1014.91 1015.18 1015.63 1016.08 1016.69 1017.38 1017.70 1017.77 1017.47 1017.44 1017.55 1017.68 1017.90 1017.94 1018.28 1018.96 1019.18 1019.14 1018.99
1005.16 1004.77 1003.38 1004.12 1004.54 1005.07 1005.30 1004.66 1007.00 1007.02 1006.83 1007.01 1007.25 1007.32 1007.70 1008.40 1008.85 1009.26 1010.32 1010.55 1011.00 1011.51 1011.92 1012.44 1012.92 1013.28 1014.34 1014.61 1015.19 1014.55 1014.61 1014.97 1015.21 1015.73 1016.17 1017.00 1017.16 1017.43 1017.83 1017.20 1017.39 1017.57 1018.01 1018.05 1018.33 1018.75 1018.93 1019.12 1019.12
1004.39 1003.10 1003.64 1003.98 1004.71 1004.80 1005.04 1004.66 1007.39 1007.73 1007.77 1007.93 1008.17 1008.47 1008.63 1008.77 1009.50 1009.75 1009.82 1010.23 1010.70 1011.19 1011.87 1012.50 1012.77 1012.95 1013.51 1014.33 1014.80 1014.65 1014.55 1014.86 1014.98 1015.32 1015.65 1016.50 1016.90 1016.97 1017.25 1017.00 1017.19 1017.87 1017.82 1017.91 1018.08 1018.44 1018.79 1019.21 1019.32
1003.62 1003.50 1003.90 1003.88 1004.90 1004.88 1005.01 1006.51 1007.90 1008.44 1008.47 1008.83 1009.31 1009.78 1010.06 1010.41 1010.90 1010.86 1010.42 1009.97 1010.21 1010.72 1011.43 1012.21 1012.51 1012.91 1013.15 1013.58 1014.10 1014.07 1014.14 1014.57 1014.88 1015.02 1015.35 1015.82 1016.47 1016.71 1017.15 1016.78 1017.28 1017.96 1017.66 1017.82 1018.04 1018.35 1018.83 1018.89 1019.21
1004.85 1004.42 1004.18 1004.76 1005.54 1005.51 1006.04 1007.12 1008.25 1008.82 1009.06 1009.52 1010.06 1010.67 1011.16 1011.95 1012.39 1012.39 1012.14 1011.19 1010.35 1010.32 1010.95 1011.51 1011.98 1012.29 1013.02 1013.28 1013.32 1013.55 1013.49 1013.98 1014.30 1014.38 1014.98 1015.55 1016.02 1016.24 1016.85 1016.44 1017.27 1017.68 1017.48 1017.73 1018.25 1018.64 1019.12 1019.04 1019.39
1005.12 1004.58 1004.47 1005.37 1005.83 1005.79 1006.22 1007.09 1008.28 1008.88 1009.54 1010.18 1010.65 1011.24 1011.72 1012.23 1012.52 1012.69 1012.73 1012.29 1011.63 1010.05 1010.44 1011.01 1011.39 1011.76 1012.20 1012.67 1012.97 1013.13 1013.56 1013.57 1013.87 1013.99 1014.61 1015.42 1015.79 1015.85 1016.34 1016.22 1016.89 1017.24 1017.41 1017.89 1018.31 1018.56 1018.60 1018.73 1019.39
1005.32 1005.30 1004.95 1005.40 1005.78 1005.90 1005.89 1006.42 1007.55 1008.80 1009.67 1010.48 1011.06 1011.50 1011.98 1012.49 1012.82 1012.91 1012.78 1012.74 1011.97 1011.09 1010.08 1010.48 1011.00 1011.55 1011.98 1012.04 1012.73 1013.40 1013.77 1014.07 1014.30 1014.62 1014.99 1015.43 1016.00 1016.08 1016.35 1016.42 1016.44 1016.90 1017.01 1017.55 1017.93 1018.31 1018.17 1018.18 1018.87
1005.91 1005.88 1006.23 1005.89 1005.64 1004.58 1005.63 1004.89 1006.78 1008.17 1009.21 1010.35 1010.98 1011.45 1011.93 1012.54 1013.19 1013.41 1012.97 1013.16 1012.67 1011.72 1011.13 1010.55 1010.90 1011.45 1012.07 1012.60 1012.98 1013.07 1013.51 1013.96 1014.05 1014.55 1015.03 1015.42 1016.10 1016.34 1016.59 1016.60 1016.48 1016.58 1016.61 1016.85 1017.37 1017.73 1017.83 1017.86 1018.17
1006.65 1007.07 1006.71 1006.18 1005.57 1005.07 1005.02 1005.75 1006.29 1007.90 1008.61 1010.21 1010.90 1011.57 1012.11 1012.73 1013.54 1013.82 1013.59 1013.71 1013.85 1013.03 1012.41 1012.10 1011.94 1012.23 1012.53 1012.64 1013.06 1013.44 1013.05 1013.31 1013.83 1013.97 1014.70 1015.15 1015.27 1015.86 1016.25 1016.41 1016.63 1016.73 1016.75 1016.60 1016.87 1017.09 1017.34 1017.71 1017.50
1008.03 1007.13 1006.54 1006.11 1005.24 1004.68 1004.31 1005.77 1005.27 1007.01 1008.99 1010.25 1011.03 1011.56 1012.03 1012.53 1013.55 1014.53 1014.53 1014.20 1014.62 1014.31 1013.88 1013.57 1013.57 1013.90 1013.69 1013.36 1013.45 1013.62 1014.09 1013.34 1013.40 1014.12 1014.76 1015.41 1015.48 1015.87 1016.40 1016.69 1017.22 1017.13 1017.09 1016.84 1017.07 1016.90 1016.89 1017.05 1017.42
1007.68 1006.63 1005.07 1004.63 1004.40 1003.84 1005.41 1006.16 1006.55 1008.75 1010.06 1010.97 1011.45 1011.74 1012.12 1012.69 1013.45 1014.80 1015.53 1015.49 1015.59 1015.39 1015.21 1015.08 1015.10 1015.17 1015.02 1014.66 1014.52 1014.57 1014.22 1013.70 1014.32 1014.15 1014.61 1015.35 1016.10 1016.71 1017.40 1017.77 1018.32 1018.35 1018.27 1017.84 1017.37 1017.26 1016.90 1017.23 1017.64
1008.09 1007.61 1005.93 1004.89 1004.05 1004.04 1006.23 1005.69 1006.79 1009.21 1010.75 1011.42 1011.86 1012.14 1012.40 1013.02 1013.85 1015.05 1016.27 1016.44 1016.46 1016.39 1016.34 1016.23 1016.02 1015.95 1016.01 1015.68 1015.41 1015.09 1014.88 1015.00 1015.06 1015.19 1015.36 1016.18 1017.10 1016.75 1017.94 1018.41 1018.99 1019.24 1019.54 1019.82 1019.02 1018.62 1017.90 1017.54 1017.76
1008.16 1007.70 1008.12 1006.82 1006.38 1005.83 1004.96 1007.03 1008.73 1009.85 1010.84 1011.53 1011.85 1012.21 1012.68 1013.40 1014.22 1015.14 1016.46 1016.98 1017.11 1017.13 1017.04 1016.84 1016.70 1016.64 1016.48 1016.44 1016.53 1016.12 1016.05 1015.84 1015.65 1015.45 1015.83 1016.44 1017.29 1017.35 1016.82 1017.42 1017.56 1019.28 1019.99 1020.06 1020.75 1019.60 1019.00 1018.55 1018.36
1009.19 1008.93 1008.36 1007.47 1006.18 1005.32 1005.13 1006.43 1006.69 1009.15 1010.17 1011.18 1011.77 1012.26 1012.92 1013.51 1014.17 1014.99 1016.40 1017.18 1017.52 1017.61 1017.53 1017.38 1017.24 1017.13 1017.13 1017.10 1016.98 1016.99 1016.93 1017.06 1016.95 1016.88 1017.12 1017.11 1017.32 1017.16 1017.97 1017.53 1017.14 1019.43 1019.66 1019.72 1021.21 1020.88 1020.26 1020.18 1019.05
1009.09 1008.79 1008.85 1008.40 1007.57 1006.42 1005.94 1006.05 1007.94 1008.96 1010.09 1011.15 1011.91 1012.50 1013.08 1013.57 1014.18 1015.01 1016.11 1016.89 1017.54 1017.67 1017.57 1017.78 1017.71 1017.63 1017.59 1017.56 1017.41 1017.38 1017.45 1017.48 1017.23 1017.46 1017.32 1017.22 1017.96 1017.70 1017.50 1017.95 1018.06 1019.30 1019.12 1019.59 1020.72 1023.09 1021.05 1022.06 1020.56
1009.52 1008.92 1008.94 1008.26 1007.59 1007.70 1007.60 1007.46 1008.99 1009.83 1010.51 1011.34 1011.79 1012.61 1013.13 1013.73 1014.13 1014.76 1015.62 1016.57 1016.86 1017.43 1017.87 1017.96 1018.09 1018.04 1018.02 1018.07 1018.08 1017.96 1017.79 1017.82 1017.74 1017.92 1018.13 1018.50 1018.91 1018.30 1018.25 1018.74 1018.89 1019.36 1019.97 1020.11 1020.88 1022.31 1022.59 1022.20 1021.43
Wind_Speed
13 14 6 7 9 7 1 5 6 1 3 3 3 2 2 5 2 5 8 12 19 20 19 20 17 16 15 14 15 16 15 15 15 14 14 14 13 13 12 11 10 11 12 11 11 11 11 12 12
12 9 7 5 10 7 6 1 2 3 6 2 5 4 4 2 3 9 14 15 21 20 19 19 19 17 17 16 15 15 16 15 14 14 14 14 13 12 11 10 10 11 11 10 10 9 9 9 9
11 7 8 6 10 10 2 5 2 3 5 5 4 6 1 3 4 11 8 20 21 20 20 19 19 17 17 17 17 14 15 15 14 14 13 13 13 12 11 10 9 10 10 9 8 7 6 7 7
9 7 5 11 14 3 5 5 3 5 5 5 3 5 3 2 7 10 20 22 21 21 20 22 19 18 16 17 17 15 14 14 14 13 13 12 12 12 10 10 9 9 8 8 6 6 5 5 5
7 6 12 14 18 8 7 4 6 5 3 6 7 4 2 3 4 12 20 21 21 20 19 22 19 20 17 17 17 16 15 12 12 13 12 12 11 11 10 10 9 8 7 6 5 4 4 3 3
9 8 13 16 17 9 9 7 5 8 6 3 6 10 2 8 11 15 18 18 18 19 19 20 19 19 18 16 16 15 14 14 12 11 11 11 10 10 10 9 7 6 5 4 3 3 3 3 3
16 11 16 16 13 13 12 9 10 10 12 11 5 6 7 10 12 16 17 17 16 17 18 19 19 18 18 16 15 14 13 12 12 10 10 9 9 9 8 8 5 5 3 2 2 2 4 3 3
9 8 18 13 12 15 6 7 6 10 11 6 2 5 3 13 13 14 15 16 16 17 17 19 18 19 18 17 15 14 13 11 11 11 10 9 9 8 7 8 6 5 4 4 2 1 3 3 3
10 11 13 14 13 12 4 13 8 3 8 7 7 9 7 10 16 14 15 17 16 16 17 17 18 19 18 18 16 14 14 12 11 12 10 10 10 10 11 12 8 5 5 4 2 2 3 5 6
13 12 15 4 10 9 10 11 9 4 10 8 10 7 2 14 17 17 19 18 19 19 18 16 17 18 18 14 17 16 14 12 12 12 12 10 7 7 2 9 7 5 5 5 3 4 7 11 8
13 15 7 8 11 12 14 12 13 10 14 12 14 7 11 14 17 17 18 18 19 19 16 18 16 15 17 13 12 9 9 9 9 12 10 9 7 7 7 8 8 9 8 8 9 9 9 4 3
10 13 14 12 10 10 12 13 15 12 16 18 16 13 10 14 14 17 19 19 19 17 16 16 17 15 15 10 10 11 10 10 9 10 11 7 6 7 7 6 7 6 8 6 7 5 4 4 2
14 11 8 10 8 8 9 13 15 14 13 18 16 4 7 13 13 14 16 17 15 16 17 17 17 16 14 14 11 11 10 9 10 10 11 9 9 8 7 6 7 7 6 8 6 6 6 6 5
2 9 7 6 9 8 10 12 3 5 12 11 7 6 4 7 13 12 12 14 14 15 17 17 17 16 16 14 14 11 11 11 10 9 10 11 8 7 8 7 8 7 7 7 7 7 6 5 4
7 10 11 11 10 9 7 13 3 13 10 8 7 6 2 5 6 10 13 13 15 14 14 17 18 17 17 15 13 11 10 11 11 10 11 12 11 9 9 8 8 8 7 8 5 6 5 4 4
9 9 10 10 4 5 11 8 12 11 11 12 11 8 4 7 3 3 10 12 13 13 15 16 15 18 18 16 14 11 11 11 11 11 10 14 13 11 10 9 9 8 7 6 7 7 7 5 4
8 4 4 7 2 4 8 2 12 11 10 11 12 11 9 10 12 5 6 11 13 14 15 16 18 19 19 16 13 12 12 11 10 10 11 13 14 14 10 9 9 9 8 8 8 8 7 5 5
4 4 5 2 4 3 5 8 9 9 11 12 12 11 11 12 13 11 9 4 11 13 16 17 16 16 17 14 13 11 11 10 10 10 11 14 12 14 12 10 9 10 9 9 9 8 7 6 6
3 1 1 4 3 1 6 8 9 8 10 12 12 12 14 13 12 13 14 13 9 14 16 19 18 16 13 13 13 12 12 12 12 11 14 15 13 15 13 11 11 11 10 10 10 9 9 7 7
5 7 5 4 3 7 6 8 9 10 10 12 13 13 14 14 15 15 15 14 13 10 16 17 18 18 16 12 10 11 11 11 11 11 12 14 15 15 14 13 12 13 11 12 11 10 8 8 10
5 10 6 8 1 6 9 11 11 10 11 12 13 13 14 15 16 17 17 15 14 11 12 14 15 15 15 15 9 9 9 8 7 8 8 10 13 14 15 15 12 13 11 11 13 12 12 9 10
14 5 8 11 10 9 9 6 10 7 11 11 13 14 15 15 15 16 17 18 18 5 8 7 10 13 12 11 11 13 8 8 10 11 11 11 14 14 14 14 14 14 12 12 13 12 12 11 11
6 10 10 11 12 13 13 9 12 6 7 9 12 13 13 14 15 17 18 16 15 15 6 6 5 8 7 12 13 8 12 10 8 10 11 12 11 13 14 14 14 13 10 11 13 14 14 12 11
9 9 9 10 12 11 9 8 9 6 4 5 9 11 13 13 13 15 16 16 16 14 14 12 8 8 9 5 10 13 12 9 10 8 10 9 8 7 11 12 11 11 9 10 11 14 16 13 12
8 8 9 9 9 2 7 8 8 8 6 6 8 10 12 12 13 14 13 14 14 15 13 10 10 11 8 7 6 6 4 2 7 6 5 4 5 3 0 2 4 4 7 8 11 13 13 13 12
3 7 8 6 6 0 5 7 6 8 5 4 5 8 10 12 12 12 9 10 10 11 12 12 10 8 8 8 5 3 7 5 5 6 8 6 5 7 10 10 11 11 9 9 7 5 8 11 11
6 5 6 8 4 8 5 5 6 9 6 1 5 7 10 11 10 11 8 8 9 10 10 10 8 8 8 7 6 5 4 4 5 10 10 8 10 8 11 11 13 11 11 11 12 5 4 5 7
8 4 6 7 7 9 8 7 2 13 10 2 3 6 8 8 8 8 7 7 7 7 7 8 8 7 7 7 5 4 4 3 4 7 9 10 7 10 10 11 15 10 10 10 10 8 5 3 7
7 9 6 7 6 8 8 4 5 3 3 3 3 3 4 5 7 7 5 4 4 4 6 5 5 6 6 6 6 5 4 3 6 6 7 9 9 9 12 11 11 10 11 11 7 4 8 5 7
6 7 7 8 7 7 9 4 5 4 4 4 3 2 2 5 6 4 3 4 4 5 5 5 5 4 4 4 6 6 6 5 6 7 6 8 7 10 11 10 11 11 10 10 10 6 6 8 9
Wind_Direction
163 184 206 233 248 239 145 140 324 231 185 59 119 249 313 14 323 37 130 154 148 148 152 163 154 161 158 154 143 139 136 137 137 139 136 128 128 128 121 119 116 113 113 112 110 110 111 111 113
174 182 216 271 259 232 144 340 230 47 59 103 163 210 202 127 69 115 145 164 158 149 154 161 156 160 157 153 148 144 140 140 140 138 137 134 129 124 120 113 113 114 111 109 109 109 109 111 115
181 223 257 241 251 256 189 132 39 141 147 152 190 262 17 114 132 154 120 162 162 154 159 149 158 159 159 156 150 147 144 142 143 143 141 135 128 123 117 114 112 111 110 109 109 106 109 112 122
179 193 226 250 242 177 262 162 19 164 159 187 228 205 187 43 144 163 150 163 159 160 159 140 160 159 163 156 151 151 149 148 148 148 141 135 131 123 118 117 113 114 113 111 111 115 118 127 136
214 237 239 233 245 228 231 201 271 249 161 184 209 232 213 112 102 142 158 162 167 159 159 157 160 159 167 161 156 156 153 153 150 147 144 140 135 128 123 120 119 122 124 125 137 141 153 163 162
199 247 234 232 234 211 237 253 219 227 214 203 223 264 135 121 145 151 157 167 168 160 155 155 163 159 167 166 164 160 160 157 154 147 145 142 139 133 127 126 128 125 127 141 166 177 207 213 199
242 211 239 248 252 229 224 210 231 230 227 200 283 252 70 162 141 157 161 167 169 163 162 157 169 165 167 170 168 165 166 161 153 148 142 144 142 137 131 127 125 119 131 167 215 221 247 246 226
245 260 248 240 247 243 189 228 263 251 248 69 237 252 259 156 147 161 168 168 176 170 171 165 171 172 175 171 169 170 170 165 153 149 148 151 147 143 139 149 123 116 131 146 172 211 261 257 234
235 241 243 232 234 256 235 241 194 358 251 210 204 280 57 143 153 164 173 175 182 179 175 172 175 174 182 173 170 174 175 173 164 160 160 169 185 175 167 86 114 122 132 138 175 206 249 213 183
216 228 249 275 282 268 262 247 244 248 223 249 243 213 134 157 165 171 186 183 184 181 179 177 182 177 183 172 169 185 180 190 189 184 174 207 173 174 194 123 143 146 156 158 178 171 208 220 152
214 251 259 252 259 272 276 266 267 245 258 254 270 269 179 184 174 180 192 192 188 182 180 180 184 178 185 179 172 185 184 190 190 191 186 206 176 175 196 164 169 165 195 183 180 179 210 139 165
245 235 262 260 264 246 255 261 261 254 266 273 282 332 177 202 184 190 193 196 191 186 187 188 180 181 193 181 188 186 193 190 191 194 191 182 202 186 190 200 179 190 183 138 197 171 106 159 211
233 249 227 239 247 240 264 258 264 286 334 326 278 248 264 199 201 199 194 197 189 188 188 195 185 187 190 195 186 188 201 194 195 192 189 193 207 191 194 193 199 195 172 184 181 151 172 161 165
179 258 242 247 234 232 242 255 333 57 338 324 321 287 245 236 189 183 191 189 197 199 191 197 194 188 200 201 189 191 191 188 208 199 193 206 206 191 203 191 210 200 200 187 182 163 172 184 167
247 251 238 236 248 224 242 248 84 338 336 26 16 44 59 70 179 192 187 203 197 201 204 199 197 189 206 200 207 200 196 204 199 206 198 203 209 190 217 207 202 201 205 194 195 169 164 185 199
236 240 235 94 206 135 224 126 41 10 23 50 46 64 86 90 101 166 172 215 202 211 205 203 200 193 199 202 212 205 198 208 203 205 197 202 199 207 210 208 206 193 197 193 187 188 186 186 194
189 206 230 132 67 155 226 241 37 28 42 52 54 52 55 80 50 55 193 202 211 209 202 205 203 208 196 205 214 220 211 214 211 208 207 200 212 202 214 213 201 188 195 195 193 191 197 173 187
81 170 139 160 74 241 183 72 53 45 55 57 56 53 52 50 31 15 351 267 202 206 205 203 205 214 204 198 209 216 217 214 223 217 216 205 215 212 205 209 192 204 199 197 202 194 187 192 188
9 316 28 102 87 185 98 104 83 72 66 61 58 53 55 45 31 19 358 338 282 203 206 201 200 195 203 207 206 212 212 213 219 220 217 219 217 208 205 208 190 208 203 208 196 189 182 178 161
303 300 110 140 75 267 174 122 104 84 75 61 57 51 42 34 26 21 9 345 322 258 205 206 207 193 198 205 211 216 217 221 225 220 223 225 220 214 208 214 196 198 197 199 195 194 188 190 175
268 297 319 318 122 237 212 171 156 106 90 75 60 55 47 38 20 12 7 358 315 294 228 212 210 209 206 210 197 207 225 225 230 237 243 233 233 221 215 210 200 191 204 195 192 193 198 196 191
295 71 297 283 250 264 200 264 151 131 98 67 57 43 35 31 25 14 8 6 355 358 325 247 229 213 197 183 193 198 201 225 224 226 225 224 219 224 220 215 209 199 202 197 194 194 198 219 197
322 321 287 278 261 264 200 251 116 168 112 56 50 44 39 36 27 15 9 16 6 356 5 1 291 207 212 202 208 213 196 205 230 238 244 227 214 221 223 219 216 206 218 200 203 190 198 198 209
303 271 249 248 239 227 209 255 145 147 92 69 44 34 30 33 45 35 9 23 22 23 25 22 48 39 5 260 226 225 225 206 215 214 216 219 222 216 232 228 231 231 228 205 211 200 192 200 209
286 250 232 207 197 255 112 238 56 125 99 47 26 17 22 22 38 45 33 35 36 38 41 43 35 26 22 39 53 61 64 129 228 185 194 156 153 113 26 323 295 298 284 255 230 213 197 196 198
315 310 317 305 270 147 158 244 115 123 109 61 22 6 13 19 24 51 46 46 53 54 46 37 34 33 19 21 29 82 126 119 107 111 109 109 101 105 97 81 50 30 18 329 297 262 224 193 195
117 250 13 287 225 261 204 114 173 164 170 184 7 355 12 12 14 46 38 33 33 26 26 29 32 31 28 25 23 36 29 84 131 124 129 125 137 132 108 107 94 61 27 28 341 308 279 181 157
293 65 214 194 260 257 171 246 303 180 203 187 322 355 6 4 17 34 30 25 22 23 24 20 17 20 19 25 35 44 82 118 141 133 148 140 132 133 136 128 117 98 103 54 21 351 0 124 122
175 213 233 304 298 288 274 182 67 138 172 255 303 347 351 346 4 10 34 40 19 355 21 27 20 10 20 23 35 48 82 96 116 112 135 129 128 123 117 109 96 115 102 85 69 338 21 29 67
268 285 258 262 181 237 306 313 119 139 192 218 258 264 328 327 330 356 37 345 345 35 33 41 30 30 40 41 47 46 66 75 80 92 94 103 117 119 110 116 112 105 100 108 88 71 31 18 34